Weather History for Fort Nelson, BC

Change the Weather History Date:

Tuesday, September 17, 2013

  Actual Average Record
Temperature  
Mean Temperature 36 °F -  
Max Temperature 39 °F 50 °F 80 °F (2012)
Min Temperature 32 °F 30 °F 28 °F (1998)
Degree Days  
Heating Degree Days 30    
Moisture  
Dew Point 33 °F    
Average Humidity 91    
Maximum Humidity 96    
Minimum Humidity 79    
Precipitation  
Precipitation 0.31 in 0.05 in - ()
Sea Level Pressure  
Sea Level Pressure 29.96 in    
Wind  
Wind Speed 9 mph ()    
Max Wind Speed 13 mph    
Max Gust Speed 20 mph    
Visibility 7.0 miles    
Events Rain , Snow    
Averages and records for this station are not official NWS values.
T = Trace of Precipitation, MM = Missing Value Source: Averaged Metar Reports

Daily Weather History Graph

Daily Weather History Graph

Search for Another Location

Airport:

Trip Planner

Search our weather history database for the weather conditions in past years. The results will help you decide how hot, cold, wet, or windy it might be!

Date:

Astronomy

Sep. 17, 2013 Rise Set
Actual Time 6:44 AM PDT 7:23 PM PDT
Civil Twilight 6:04 AM PDT 8:03 PM PDT
Nautical Twilight 5:14 AM PDT 8:52 PM PDT
Astronomical Twilight 4:20 AM PDT 9:46 PM PDT
Moon 6:22 PM PDT (9/17) 4:27 AM PDT (9/17)
Length of Visible Light 13h 59m
Length of Day
12h 38m
Waxing Gibbous, 96% of the Moon is Illuminated
Sep 17
Waxing Gibbous
Sep 19
Full
Sep 26
Last Quarter
Oct 4
New
Oct 11
First Quarter

Hourly Weather History & Observations

Time (PDT) Temp. Windchill Dew Point Humidity Pressure Visibility Wind Dir Wind Speed Gust Speed Precip Events Conditions
12:00 AM 37.4 °F 29.3 °F 35.6 °F 93% 29.81 in 10.0 mi WNW 12.7 mph - N/A Rain Light Rain Showers
1:00 AM 35.6 °F 28.0 °F 33.8 °F 93% 29.83 in 10.0 mi West 10.4 mph - N/A Rain Light Rain Showers
2:00 AM 35.6 °F 27.1 °F 33.8 °F 93% 29.85 in 10.0 mi WNW 12.7 mph 18.4 mph N/A Rain Light Rain Showers
3:00 AM 35.6 °F 27.1 °F 33.8 °F 93% 29.86 in 10.0 mi West 12.7 mph - N/A Rain Light Rain Showers
4:00 AM 33.8 °F 27.0 °F 32.0 °F 93% 29.88 in 10.0 mi West 8.1 mph - N/A Rain Light Rain Showers
4:53 AM 33.8 °F 26.4 °F 32.0 °F 93% 29.89 in 10.0 mi WNW 9.2 mph - N/A Snow Light Snow
5:00 AM 33 °F - 32 °F 92% 29.89 in 5 mi WNW 9.2 mph - - Snow Light Snow
5:00 AM 33.8 °F 25.8 °F 32.0 °F 93% 29.89 in 5.0 mi WNW 10.4 mph - N/A Snow Light Snow
6:00 AM 33.8 °F 25.3 °F 32.0 °F 93% 29.90 in 5.0 mi WNW 11.5 mph 19.6 mph N/A Rain , Snow Light Snow
6:21 AM 33.8 °F 26.4 °F 32.0 °F 93% 29.91 in 1.5 mi WNW 9.2 mph - N/A Rain , Snow Light Snow
7:00 AM 33.8 °F 25.8 °F 32.0 °F 93% 29.92 in 1.0 mi WNW 10.4 mph - N/A Snow Light Snow
7:21 AM 33.8 °F 27.0 °F 32.0 °F 93% 29.92 in 3.0 mi WNW 8.1 mph - N/A Snow Light Snow
8:00 AM 33.8 °F 26.4 °F 32.0 °F 93% 29.93 in 5.0 mi WNW 9.2 mph - N/A Snow Light Snow
9:00 AM 33.8 °F 25.8 °F 32.0 °F 93% 29.95 in 5.0 mi WNW 10.4 mph - N/A Snow Light Snow
10:00 AM 33.8 °F 26.4 °F 32.0 °F 93% 29.95 in 10.0 mi NW 9.2 mph - N/A Snow Light Snow
11:00 AM 35 °F - 32 °F 86% 29.96 in 10 mi NW 9.2 mph - -   Mostly Cloudy
11:00 AM 35.6 °F 28.0 °F 32.0 °F 87% 29.96 in 10.0 mi NW 10.4 mph - N/A Snow Light Snow
12:00 PM 35.6 °F 28.0 °F 32.0 °F 87% 29.96 in 15.0 mi NW 10.4 mph - N/A   Overcast
1:00 PM 35.6 °F 27.1 °F 33.8 °F 93% 29.98 in 4.0 mi NW 12.7 mph - N/A   Overcast
2:00 PM 37.4 °F 29.8 °F 33.8 °F 87% 29.98 in 10.0 mi NW 11.5 mph 19.6 mph N/A   Overcast
3:00 PM 39.2 °F 32.5 °F 35.6 °F 87% 29.99 in 10.0 mi NNW 10.4 mph - N/A   Overcast
4:00 PM 39.2 °F 32.5 °F 33.8 °F 81% 29.99 in 10.0 mi NW 10.4 mph - N/A   Overcast
5:00 PM 39 °F - 35 °F 79% 30.01 in 10 mi NNW 9.2 mph - -   Partly Cloudy
5:00 PM 39.2 °F 33.6 °F 35.6 °F 87% 30.00 in 10.0 mi NNW 8.1 mph - N/A   Overcast
6:00 PM 37.4 °F 32.1 °F 35.6 °F 93% 30.00 in 7.0 mi NW 6.9 mph - N/A   Overcast
6:29 PM 37.4 °F 32.8 °F 35.6 °F 93% 30.01 in 5.0 mi WNW 5.8 mph - N/A Snow Light Snow
7:00 PM 37.4 °F 32.8 °F 35.6 °F 93% 30.02 in 3.0 mi NW 5.8 mph - N/A Snow Light Snow
8:00 PM 37.4 °F 32.8 °F 33.8 °F 87% 30.02 in 3.0 mi WNW 5.8 mph - N/A Snow Light Snow
9:00 PM 35.6 °F 30.7 °F 33.8 °F 93% 30.04 in 5.0 mi West 5.8 mph - N/A Snow Light Snow
9:36 PM 35.6 °F 30.7 °F 33.8 °F 93% 30.04 in 10.0 mi NNW 5.8 mph - N/A   Overcast
10:00 PM 35.6 °F 29.2 °F 33.8 °F 93% 30.04 in 10.0 mi NNW 8.1 mph - N/A   Overcast
10:25 PM 35.6 °F 30.7 °F 33.8 °F 93% 30.04 in 2.0 mi North 5.8 mph - N/A   Overcast
11:00 PM 35 °F - 34 °F 96% 30.04 in 2 mi NNW 4.6 mph - -   Mist
11:00 PM 35.6 °F 32.8 °F 33.8 °F 93% 30.04 in 2.0 mi NNW 3.5 mph - N/A   Overcast